Preview of NWS' New Version of Forecast
This preview is not operational and should not be used for support decisions.

Regional Weather Roundup (RWR)

Issued by National Weather Service (NWS)

                            
000
ASUS45 KBOI 232010
RWRID 

IDAHO REGIONAL WEATHER ROUNDUP
NATIONAL WEATHER SERVICE BOISE ID
200 PM MDT SUN JUN 23 2019

NOTE: "FAIR" INDICATES FEW OR NO CLOUDS BELOW 12000 FEET
WITH NO SIGNIFICANT WEATHER AND/OR OBSTRUCTIONS TO VISIBILITY

IDZ012-014-232100-
SOUTHWEST IDAHO

  
CITY           SKY/WX    TMP DP  RH WIND       PRES   REMARKS
BOISE          SUNNY     74  35  24 NW12G21   30.01F                  
CALDWELL       SUNNY     74  39  28 NW6       30.01S                  
MOUNTAIN HOME  SUNNY     76  35  22 NW15G23   29.98F                  
$$

IDZ016-017-232100-
SOUTHCENTRAL IDAHO

  
CITY           SKY/WX    TMP DP  RH WIND       PRES   REMARKS
BURLEY         SUNNY     75  37  25 W10G21    30.01S                  
JEROME         SUNNY     76  39  26 W14G23    30.02F                  
TWIN FALLS     SUNNY     75  38  26 NW16G28   30.02F                  
$$

IDZ019>023-232100-
SOUTHEAST IDAHO

  
CITY           SKY/WX    TMP DP  RH WIND       PRES   REMARKS
IDAHO FALLS    CLOUDY    66  36  32 S14G23    30.04F                  
POCATELLO      CLOUDY    76  34  21 SW18G28   30.03F                  
REXBURG        CLOUDY    66  40  38 SW10      30.02F                  
$$

IDZ006-010-011-018-031-032-232100-
CENTRAL IDAHO MOUNTAINS

  
CITY           SKY/WX    TMP DP  RH WIND       PRES   REMARKS
MCCALL         PTSUNNY   61  33  35 W12       30.03S                  
HAILEY         SUNNY     66  37  34 SW8G21    30.04F                  
STANLEY          N/A     64  31  28 S9G21     30.05F                  
SALMON         CLOUDY    63  41  44 CALM      29.96F                  
CHALLIS        PTSUNNY   73  32  22 SW8       29.94F                  
$$

IDZ002-004-006-007-026-232100-
NORTHERN IDAHO

  
CITY           SKY/WX    TMP DP  RH WIND       PRES   REMARKS
LEWISTON       CLOUDY    73  40  30 W12       29.99S                  
LOWELL           N/A     70  49  47 CALM      29.99F                  
COEUR D'ALENE  CLOUDY    60  47  61 S8        30.01F                  
MULLAN PASS    CLOUDY    44  38  79 VRB5      30.06S                  
$$